Location: Gajan
(43.0218°N, 1.1244°E)
Time: 16:11:26
(UTC+00:00)

SPOT 5 - Pass Details

Date: 22 April 2021
Orbit: 624 x 814 km, 98.2° (Epoch: 13 May)

Event Time Altitude Azimuth Distance (km) Brightness Sun altitude
Exits shadow 21:14:11 51° 71° (ENE) 860 3.0 -23.6°
Drops below altitude 10° 21:18:50 10° 356° (N) 2,203 6.0 -24.1°
Sets 21:21:13 0° 352° (N) 3,160 7.1 -24.4°
